Orbital Elements at Epoch 2459000.5 (2020-May-31.0) TDB
Reference: JPL 29 (heliocentric ecliptic J2000)
Element | Value | Uncertainty (1-sigma) | Units |
e | .1019060052693805 | 3.1777e-08 | |
a | 2.25878820456935 | 7.2752e-09 | au |
q | 2.028604121892092 | 7.0749e-08 | au |
i | 2.765482917788101 | 3.7458e-06 | deg |
node | 349.9803228321307 | 6.9976e-05 | deg |
peri | 105.1457638083872 | 7.2567e-05 | deg |
M | 139.5007389294392 | 1.9992e-05 | deg |
tp | 2458520.008509275810 (2019-Feb-05.50850928) | 6.8014e-05 | TDB |
period | 1239.971472467984 3.39 | 5.9906e-06 1.64e-08 | d yr |
n | .2903292599816607 | 1.4027e-09 | deg/d |
Q | 2.488972287246609 | 8.0166e-09 | au |
|
| | Orbit Determination Parameters
Additional Information
|